Time,TemperatureF,DewpointF,PressureIn,WindDirection,WindDirectionDegrees,WindSpeedMPH,WindSpeedGustMPH,Humidity,HourlyPrecipIn,Conditions,Clouds,dailyrainin,SoftwareType,DateUTC
2013-02-20 00:04:00,51.1,34.6,30.19,East,90,3.8,-999.0,53,-99.99,,,0.00,Acu-Link.com,2013-02-20 06:04:00,
2013-02-20 00:19:00,51.4,34.4,30.20,NE,45,3.8,-999.0,52,-99.99,,,0.00,Acu-Link.com,2013-02-20 06:19:00,
2013-02-20 00:34:00,51.4,34.4,30.20,WNW,292,3.1,-999.0,52,-99.99,,,0.00,Acu-Link.com,2013-02-20 06:34:00,
2013-02-20 00:50:00,51.4,34.4,30.21,East,90,4.7,-999.0,52,-99.99,,,0.00,Acu-Link.com,2013-02-20 06:50:00,
2013-02-20 01:05:00,51.3,34.2,30.21,SE,135,2.7,-999.0,52,-99.99,,,0.00,Acu-Link.com,2013-02-20 07:05:00,
2013-02-20 01:20:00,51.3,33.8,30.21,East,90,5.8,-999.0,51,-99.99,,,0.00,Acu-Link.com,2013-02-20 07:20:00,
2013-02-20 01:35:00,50.7,35.1,30.21,NE,45,3.1,-999.0,55,-99.99,,,0.00,Acu-Link.com,2013-02-20 07:35:00,
2013-02-20 01:50:00,49.8,36.9,30.20,East,90,3.8,-999.0,61,-99.99,,,0.00,Acu-Link.com,2013-02-20 07:50:00,
2013-02-20 02:06:00,49.5,36.6,30.20,East,90,5.1,-999.0,61,-99.99,,,0.00,Acu-Link.com,2013-02-20 08:06:00,
2013-02-20 02:21:00,49.6,37.2,30.19,ENE,67,4.7,-999.0,62,-99.99,,,0.00,Acu-Link.com,2013-02-20 08:21:00,
2013-02-20 02:36:00,48.6,38.1,30.18,North,0,6.3,-999.0,67,-99.99,,,0.00,Acu-Link.com,2013-02-20 08:36:00,
2013-02-20 02:53:00,48.2,38.1,30.17,South,180,7.8,-999.0,68,-99.99,,,0.00,Acu-Link.com,2013-02-20 08:53:00,
2013-02-20 03:18:00,47.7,38.7,30.15,NNE,22,5.1,-999.0,71,-99.99,,,0.00,Acu-Link.com,2013-02-20 09:18:00,
2013-02-20 03:33:00,48.4,37.9,30.14,East,90,3.8,-999.0,67,-99.99,,,0.00,Acu-Link.com,2013-02-20 09:33:00,
2013-02-20 03:48:00,48.9,37.7,30.14,ESE,112,5.1,-999.0,65,-99.99,,,0.00,Acu-Link.com,2013-02-20 09:48:00,
2013-02-20 04:03:00,48.7,37.1,30.15,ESE,112,0.0,-999.0,64,-99.99,,,0.00,Acu-Link.com,2013-02-20 10:03:00,
2013-02-20 04:18:00,48.4,37.6,30.21,WSW,247,0.0,-999.0,66,-99.99,,,0.00,Acu-Link.com,2013-02-20 10:18:00,
2013-02-20 04:33:00,47.7,38.4,30.21,NE,45,0.0,-999.0,70,-99.99,,,0.00,Acu-Link.com,2013-02-20 10:33:00,
2013-02-20 04:48:00,47.3,39.1,30.20,SE,135,2.7,-999.0,73,-99.99,,,0.00,Acu-Link.com,2013-02-20 10:48:00,
2013-02-20 05:04:00,47.5,40.3,30.18,NW,315,4.3,-999.0,76,-99.99,,,0.00,Acu-Link.com,2013-02-20 11:04:00,
2013-02-20 05:19:00,45.5,41.9,30.15,ENE,67,5.8,-999.0,87,-99.99,,,0.01,Acu-Link.com,2013-02-20 11:19:00,
2013-02-20 05:34:00,44.6,41.9,30.15,ESE,112,3.8,-999.0,90,-99.99,,,0.01,Acu-Link.com,2013-02-20 11:34:00,
2013-02-20 05:49:00,44.6,41.3,30.14,NNE,22,5.1,-999.0,88,-99.99,,,0.01,Acu-Link.com,2013-02-20 11:49:00,
2013-02-20 06:04:00,44.8,40.9,30.12,WSW,247,8.3,-999.0,86,-99.99,,,0.01,Acu-Link.com,2013-02-20 12:04:00,
2013-02-20 06:20:00,45.0,40.4,30.14,East,90,4.7,-999.0,84,-99.99,,,0.01,Acu-Link.com,2013-02-20 12:20:00,
2013-02-20 06:35:00,45.0,39.8,30.15,SE,135,5.8,-999.0,82,-99.99,,,0.01,Acu-Link.com,2013-02-20 12:35:00,
2013-02-20 06:50:00,44.2,40.6,30.14,NE,45,4.3,-999.0,87,-99.99,,,0.01,Acu-Link.com,2013-02-20 12:50:00,
2013-02-20 07:05:00,43.9,40.9,30.14,SSW,202,7.4,-999.0,89,-99.99,,,0.04,Acu-Link.com,2013-02-20 13:05:00,
2013-02-20 07:20:00,43.9,41.1,30.14,NNW,337,2.2,-999.0,90,-99.99,,,0.04,Acu-Link.com,2013-02-20 13:20:00,
2013-02-20 07:36:00,44.2,41.5,30.14,NNE,22,3.8,-999.0,90,-99.99,,,0.04,Acu-Link.com,2013-02-20 13:36:00,
2013-02-20 07:51:00,44.8,40.9,30.14,ESE,112,6.7,-999.0,86,-99.99,,,0.04,Acu-Link.com,2013-02-20 13:51:00,
2013-02-20 08:06:00,44.8,40.6,30.21,ESE,112,1.1,-999.0,85,-99.99,,,0.04,Acu-Link.com,2013-02-20 14:06:00,
2013-02-20 08:21:00,44.4,41.4,30.16,East,90,2.7,-999.0,89,-99.99,,,0.06,Acu-Link.com,2013-02-20 14:21:00,
2013-02-20 08:36:00,43.9,42.5,30.22,East,90,1.6,-999.0,95,-99.99,,,0.06,Acu-Link.com,2013-02-20 14:36:00,
2013-02-20 08:52:00,43.3,42.5,30.22,East,90,4.3,-999.0,97,-99.99,,,0.07,Acu-Link.com,2013-02-20 14:52:00,
2013-02-20 09:07:00,43.5,42.7,30.20,NNE,22,5.8,-999.0,97,-99.99,,,0.07,Acu-Link.com,2013-02-20 15:07:00,
2013-02-20 09:22:00,43.7,42.6,30.19,SSW,202,6.3,-999.0,96,-99.99,,,0.07,Acu-Link.com,2013-02-20 15:22:00,
2013-02-20 09:37:00,43.9,42.8,30.20,SSW,202,0.0,-999.0,96,-99.99,,,0.07,Acu-Link.com,2013-02-20 15:37:00,
2013-02-20 09:53:00,43.3,42.3,30.20,SW,225,3.1,-999.0,96,-99.99,,,0.08,Acu-Link.com,2013-02-20 15:53:00,
2013-02-20 10:08:00,43.2,42.6,30.19,NNE,22,4.7,-999.0,98,-99.99,,,0.12,Acu-Link.com,2013-02-20 16:08:00,
2013-02-20 10:23:00,46.8,46.2,30.16,ESE,112,12.5,-999.0,98,-99.99,,,0.17,Acu-Link.com,2013-02-20 16:23:00,
2013-02-20 10:38:00,45.3,44.2,30.16,SW,225,9.8,-999.0,96,-99.99,,,0.17,Acu-Link.com,2013-02-20 16:38:00,
2013-02-20 10:53:00,45.7,43.5,30.15,NW,315,9.4,-999.0,92,-99.99,,,0.17,Acu-Link.com,2013-02-20 16:53:00,
2013-02-20 11:09:00,45.1,43.2,30.14,ESE,112,8.3,-999.0,93,-99.99,,,0.17,Acu-Link.com,2013-02-20 17:09:00,
2013-02-20 11:24:00,44.8,42.3,30.14,East,90,6.3,-999.0,91,-99.99,,,0.17,Acu-Link.com,2013-02-20 17:24:00,
2013-02-20 11:39:00,44.8,42.6,30.12,SSE,157,8.9,-999.0,92,-99.99,,,0.17,Acu-Link.com,2013-02-20 17:39:00,
2013-02-20 11:54:00,44.6,42.1,30.11,ESE,112,14.5,-999.0,91,-99.99,,,0.17,Acu-Link.com,2013-02-20 17:54:00,
2013-02-20 12:09:00,44.6,41.9,30.11,SE,135,7.8,-999.0,90,-99.99,,,0.17,Acu-Link.com,2013-02-20 18:09:00,
2013-02-20 12:25:00,44.4,41.7,30.10,East,90,9.4,-999.0,90,-99.99,,,0.17,Acu-Link.com,2013-02-20 18:25:00,
2013-02-20 12:40:00,44.6,41.3,30.09,NE,45,8.9,-999.0,88,-99.99,,,0.17,Acu-Link.com,2013-02-20 18:40:00,
2013-02-20 12:55:00,44.8,41.2,30.08,East,90,5.8,-999.0,87,-99.99,,,0.17,Acu-Link.com,2013-02-20 18:55:00,
2013-02-20 13:10:00,44.6,40.4,30.09,SSE,157,4.3,-999.0,85,-99.99,,,0.17,Acu-Link.com,2013-02-20 19:10:00,
2013-02-20 13:25:00,45.1,40.6,30.06,NNE,22,7.8,-999.0,84,-99.99,,,0.17,Acu-Link.com,2013-02-20 19:25:00,
2013-02-20 13:41:00,45.3,39.8,30.06,NW,315,8.3,-999.0,81,-99.99,,,0.17,Acu-Link.com,2013-02-20 19:41:00,
2013-02-20 13:56:00,45.5,39.4,30.04,ESE,112,9.4,-999.0,79,-99.99,,,0.17,Acu-Link.com,2013-02-20 19:56:00,
2013-02-20 14:11:00,45.3,38.9,30.03,NE,45,5.1,-999.0,78,-99.99,,,0.17,Acu-Link.com,2013-02-20 20:11:00,
2013-02-20 14:26:00,44.8,38.7,30.04,ESE,112,8.9,-999.0,79,-99.99,,,0.17,Acu-Link.com,2013-02-20 20:26:00,
2013-02-20 14:41:00,45.0,38.5,30.04,East,90,7.4,-999.0,78,-99.99,,,0.17,Acu-Link.com,2013-02-20 20:41:00,
2013-02-20 14:57:00,45.0,38.8,30.04,ESE,112,4.7,-999.0,79,-99.99,,,0.17,Acu-Link.com,2013-02-20 20:57:00,
2013-02-20 15:12:00,44.8,39.0,30.04,ESE,112,7.4,-999.0,80,-99.99,,,0.17,Acu-Link.com,2013-02-20 21:12:00,
2013-02-20 15:27:00,44.8,39.0,30.02,SSE,157,9.8,-999.0,80,-99.99,,,0.17,Acu-Link.com,2013-02-20 21:27:00,
2013-02-20 15:42:00,45.1,39.3,30.00,North,0,6.3,-999.0,80,-99.99,,,0.17,Acu-Link.com,2013-02-20 21:42:00,
2013-02-20 15:58:00,45.3,39.5,30.00,NE,45,14.1,-999.0,80,-99.99,,,0.17,Acu-Link.com,2013-02-20 21:58:00,
2013-02-20 16:13:00,44.8,39.3,29.99,ESE,112,8.9,-999.0,81,-99.99,,,0.17,Acu-Link.com,2013-02-20 22:13:00,
2013-02-20 16:28:00,44.6,39.1,29.99,ESE,112,6.3,-999.0,81,-99.99,,,0.17,Acu-Link.com,2013-02-20 22:28:00,
2013-02-20 16:43:00,44.2,39.1,30.00,East,90,5.1,-999.0,82,-99.99,,,0.17,Acu-Link.com,2013-02-20 22:43:00,
2013-02-20 16:58:00,44.4,39.6,30.00,SSE,157,12.5,-999.0,83,-99.99,,,0.17,Acu-Link.com,2013-02-20 22:58:00,
2013-02-20 17:14:00,44.2,39.7,29.97,NNE,22,7.8,-999.0,84,-99.99,,,0.17,Acu-Link.com,2013-02-20 23:14:00,
2013-02-20 17:29:00,43.7,40.4,29.98,SE,135,9.4,-999.0,88,-99.99,,,0.17,Acu-Link.com,2013-02-20 23:29:00,
2013-02-20 17:44:00,42.8,40.1,29.96,NNE,22,6.3,-999.0,90,-99.99,,,0.17,Acu-Link.com,2013-02-20 23:44:00,
2013-02-20 17:59:00,42.4,40.0,29.96,East,90,7.4,-999.0,91,-99.99,,,0.17,Acu-Link.com,2013-02-20 23:59:00,
2013-02-20 18:14:00,42.1,39.6,29.96,South,180,5.1,-999.0,91,-99.99,,,0.17,Acu-Link.com,2013-02-21 00:14:00,
2013-02-20 18:30:00,42.1,39.6,29.96,East,90,5.8,-999.0,91,-99.99,,,0.17,Acu-Link.com,2013-02-21 00:30:00,
2013-02-20 18:45:00,43.7,41.5,29.97,ESE,112,6.7,-999.0,92,-99.99,,,0.17,Acu-Link.com,2013-02-21 00:45:00,
2013-02-20 19:00:00,41.7,39.6,29.98,ENE,67,9.8,-999.0,92,-99.99,,,0.17,Acu-Link.com,2013-02-21 01:00:00,
2013-02-20 19:15:00,41.5,39.4,29.97,NNE,22,7.4,-999.0,92,-99.99,,,0.17,Acu-Link.com,2013-02-21 01:15:00,
2013-02-20 19:31:00,41.4,39.2,29.97,ENE,67,9.8,-999.0,92,-99.99,,,0.17,Acu-Link.com,2013-02-21 01:31:00,
2013-02-20 19:46:00,41.4,39.5,29.97,SSE,157,10.3,-999.0,93,-99.99,,,0.17,Acu-Link.com,2013-02-21 01:46:00,
2013-02-20 20:01:00,41.0,38.9,29.96,ESE,112,7.8,-999.0,92,-99.99,,,0.17,Acu-Link.com,2013-02-21 02:01:00,
2013-02-20 20:16:00,41.0,38.9,29.96,ESE,112,9.4,-999.0,92,-99.99,,,0.17,Acu-Link.com,2013-02-21 02:16:00,
2013-02-20 20:31:00,41.0,38.9,29.95,East,90,9.4,-999.0,92,-99.99,,,0.17,Acu-Link.com,2013-02-21 02:31:00,
2013-02-20 20:47:00,41.0,38.6,29.95,NE,45,10.3,-999.0,91,-99.99,,,0.17,Acu-Link.com,2013-02-21 02:47:00,
2013-02-20 21:02:00,41.2,38.5,29.93,East,90,6.3,-999.0,90,-99.99,,,0.17,Acu-Link.com,2013-02-21 03:02:00,
2013-02-20 21:17:00,41.2,38.2,29.93,SE,135,8.3,-999.0,89,-99.99,,,0.17,Acu-Link.com,2013-02-21 03:17:00,
2013-02-20 21:32:00,41.4,38.1,29.93,SE,135,6.3,-999.0,88,-99.99,,,0.17,Acu-Link.com,2013-02-21 03:32:00,
2013-02-20 21:47:00,41.4,38.1,29.92,NNE,22,11.4,-999.0,88,-99.99,,,0.17,Acu-Link.com,2013-02-21 03:47:00,
2013-02-20 22:03:00,41.4,38.1,29.91,East,90,10.3,-999.0,88,-99.99,,,0.17,Acu-Link.com,2013-02-21 04:03:00,
2013-02-20 22:18:00,41.4,38.1,29.89,ESE,112,7.8,-999.0,88,-99.99,,,0.17,Acu-Link.com,2013-02-21 04:18:00,
2013-02-20 22:33:00,41.5,38.0,29.89,ESE,112,8.3,-999.0,87,-99.99,,,0.17,Acu-Link.com,2013-02-21 04:33:00,
2013-02-20 22:48:00,41.5,38.0,29.88,East,90,7.8,-999.0,87,-99.99,,,0.17,Acu-Link.com,2013-02-21 04:48:00,
2013-02-20 23:03:00,41.7,37.8,29.87,SSE,157,4.7,-999.0,86,-99.99,,,0.17,Acu-Link.com,2013-02-21 05:03:00,
2013-02-20 23:19:00,41.9,38.0,29.86,ENE,67,6.7,-999.0,86,-99.99,,,0.17,Acu-Link.com,2013-02-21 05:19:00,
2013-02-20 23:34:00,42.4,38.0,29.86,East,90,7.8,-999.0,84,-99.99,,,0.17,Acu-Link.com,2013-02-21 05:34:00,
2013-02-20 23:49:00,43.0,37.9,29.84,ESE,112,6.7,-999.0,82,-99.99,,,0.17,Acu-Link.com,2013-02-21 05:49:00,